DW4466 Weather Reports


Display with metric or nautical units.
time (UTC)temp
F
wind
direction
speed
MPH
gust
MPH
rain 1hr
in
rain 24hr
in
rain mn
in
humidity
%
barometer
mb
20260903121520 71 150 2.0 5.0 0.00 0.04 0.01 98 1016.6
20260903121055 71 123 0.0 4.0 0.00 0.04 0.01 98 1016.6
20260903120531 71 262 2.0 5.0 0.00 0.04 0.01 98 1016.3
20260903120106 71 102 0.0 5.0 0.00 0.04 0.01 98 1016.6
20260903120002 71 102 1.0 8.0 0.00 0.04 0.01 98 1016.7
20260903115516 71 110 2.0 8.0 0.00 0.04 0.01 99 1016.8
20260903115051 71 120 1.0 9.0 0.00 0.04 0.01 99 1016.7
20260903114522 71 144 5.0 9.0 0.00 0.04 0.01 99 1016.7
20260903114054 71 138 2.0 9.0 0.01 0.04 0.01 99 1016.7
20260903113530 71 149 4.0 9.0 0.01 0.04 0.01 99 1016.8
20260903113042 71 138 2.0 9.0 0.01 0.04 0.01 99 1016.6
20260903112512 71 128 3.0 12.0 0.01 0.04 0.01 99 1016.3
20260903112047 71 195 3.0 12.0 0.01 0.04 0.01 99 1016.4
20260903111520 71 128 3.0 9.0 0.01 0.04 0.01 99 1016.6
20260903111031 71 163 4.0 11.0 0.01 0.04 0.01 99 1016.2
20260903110509 70 138 5.0 11.0 0.01 0.04 0.01 99 1016.3
20260903110044 70 163 5.0 11.0 0.01 0.04 0.01 99 1016.2
20260903105517 70 101 6.0 11.0 0.01 0.04 0.01 99 1016.2
20260903105048 70 133 4.0 8.0 0.01 0.04 0.01 99 1016.2
20260903104518 70 128 4.0 6.0 0.01 0.04 0.01 99 1016.2
20260903104048 70 138 2.0 4.0 0.00 0.03 0.00 99 1015.9
20260903103520 70 138 2.0 6.0 0.00 0.03 0.00 98 1015.5
20260903103054 70 133 3.0 6.0 0.00 0.03 0.00 99 1015.4
20260903102526 70 150 3.0 6.0 0.00 0.03 0.00 99 1015.2
20260903102042 69 123 1.0 9.0 0.00 0.03 0.00 99 1015.1
20260903101515 69 104 4.0 9.0 0.00 0.03 0.00 99 1014.9
20260903101049 69 117 3.0 5.0 0.00 0.03 0.00 99 1014.8
20260903100519 69 138 1.0 3.0 0.00 0.03 0.00 98 1014.6
20260903100052 69 144 1.0 2.0 0.00 0.03 0.00 98 1014.6
20260903095526 69 219 0.0 1.0 0.00 0.03 0.00 98 1014.4
20260903095055 69 219 0.0 1.0 0.00 0.03 0.00 98 1014.5
20260903094529 69 219 0.0 0.0 0.00 0.03 0.00 98 1014.5
20260903094100 69 220 0.0 0.0 0.00 0.03 0.00 98 1014.4
20260903094003 69 219 0.0 0.0 0.00 0.03 0.00 98 1014.4
20260903093539 69 219 0.0 1.0 0.00 0.03 0.00 98 1014.4
20260903093004 69 219 0.0 1.0 0.00 0.03 0.00 98 1014.4
20260903092518 69 219 0.0 0.0 0.00 0.03 0.00 98 1014.5
20260903092055 69 219 0.0 0.0 0.00 0.03 0.00 98 1014.6
20260903091531 69 219 0.0 0.0 0.00 0.03 0.00 98 1014.5
20260903091057 69 219 0.0 2.0 0.00 0.03 0.00 98 1014.5
20260903090530 69 220 0.0 2.0 0.00 0.03 0.00 98 1014.6
20260903090058 69 219 0.0 0.0 0.00 0.03 0.00 98 1014.7
20260903090002 69 219 0.0 0.0 0.00 0.03 0.00 98 1014.6
20260903085527 69 219 0.0 0.0 0.00 0.03 0.00 98 1014.5
20260903085004 69 219 0.0 0.0 0.00 0.03 0.00 98 1014.5
20260903084538 69 219 0.0 0.0 0.00 0.03 0.00 98 1014.5
20260903084008 69 219 0.0 0.0 0.00 0.03 0.00 98 1014.5
20260903083539 69 220 0.0 0.0 0.00 0.03 0.00 98 1014.5
20260903083008 69 219 0.0 0.0 0.00 0.03 0.00 98 1014.5
20260903082539 69 219 0.0 0.0 0.00 0.03 0.00 97 1014.5
20260903082052 69 220 0.0 0.0 0.00 0.03 0.00 97 1014.4
20260903081522 69 219 0.0 0.0 0.00 0.03 0.00 97 1014.4
20260903081058 70 220 0.0 0.0 0.00 0.03 0.00 97 1014.4
20260903080535 70 219 0.0 0.0 0.00 0.03 0.00 97 1014.5
20260903080004 70 219 0.0 0.0 0.00 0.03 0.00 97 1014.5
20260903075536 70 220 0.0 1.0 0.00 0.03 0.00 97 1014.6
20260903075008 70 220 0.0 2.0 0.00 0.03 0.00 98 1014.6
20260903074524 70 219 1.0 2.0 0.00 0.03 0.00 98 1014.5
20260903074058 70 219 1.0 2.0 0.00 0.03 0.00 98 1014.5
20260903073534 70 215 0.0 3.0 0.00 0.03 0.00 98 1014.5
20260903073022 70 229 0.0 3.0 0.00 0.03 0.00 98 1014.5
20260903072547 70 138 0.0 0.0 0.00 0.03 0.00 97 1014.5
20260903072056 70 138 0.0 0.0 0.00 0.03 0.00 97 1014.5
20260903071528 70 138 0.0 0.0 0.00 0.03 0.00 97 1014.6
20260903071059 70 138 0.0 0.0 0.00 0.03 0.00 97 1014.5
20260903071001 70 138 0.0 0.0 0.00 0.03 0.00 97 1014.5
20260903070539 70 138 0.0 0.0 0.00 0.03 0.00 97 1014.5
20260903070010 70 138 0.0 1.0 0.00 0.03 0.00 97 1014.5
20260903065524 70 138 0.0 0.0 0.00 0.03 0.00 97 1014.3
20260903065057 70 17 0.0 0.0 0.00 0.03 0.00 97 1014.2
20260903064536 70 17 0.0 0.0 0.00 0.03 0.00 97 1014.2
20260903064008 70 17 0.0 0.0 0.00 0.03 0.00 97 1014.1
20260903063541 70 17 0.0 0.0 0.00 0.03 0.00 97 1014.1
20260903063056 70 17 0.0 0.0 0.00 0.03 0.00 97 1014.1
20260903062527 70 17 0.0 0.0 0.00 0.03 0.00 97 1014.1
20260903062004 70 17 0.0 0.0 0.00 0.03 0.00 97 1014.1
20260903061555 70 17 0.0 0.0 0.00 0.03 0.00 97 1014.0
20260903061007 70 17 0.0 0.0 0.00 0.03 0.00 96 1014.1
20260903060541 70 17 0.0 0.0 0.00 0.03 0.00 96 1014.1
20260903060012 70 17 0.0 3.0 0.00 0.03 0.00 96 1014.2
20260903055545 70 17 1.0 3.0 0.00 0.03 0.00 96 1014.1
20260903055003 71 5 0.0 3.0 0.00 0.03 0.00 96 1014.2
20260903054537 71 5 1.0 3.0 0.00 0.03 0.00 96 1014.4
20260903054009 71 94 0.0 1.0 0.00 0.03 0.00 96 1014.4
20260903053544 71 94 0.0 0.0 0.00 0.03 0.00 96 1014.5
20260903053015 71 94 0.0 0.0 0.00 0.03 0.03 96 1014.6
20260903052531 71 94 0.0 0.0 0.00 0.03 0.03 96 1014.6
20260903052007 71 94 0.0 1.0 0.00 0.03 0.03 95 1014.6
20260903051541 71 94 0.0 1.0 0.00 0.03 0.03 95 1014.7
20260903051009 71 94 0.0 1.0 0.00 0.03 0.03 95 1014.7
20260903050546 71 94 0.0 2.0 0.00 0.03 0.03 95 1014.6
20260903050015 71 94 0.0 2.0 0.00 0.03 0.03 95 1014.7
20260903045549 71 94 0.0 0.0 0.00 0.03 0.03 95 1014.7
20260903045019 71 94 0.0 0.0 0.00 0.03 0.03 95 1014.8
20260903044555 71 94 0.0 0.0 0.00 0.03 0.03 95 1014.9
20260903044025 71 94 0.0 0.0 0.00 0.03 0.03 94 1014.9
20260903043557 72 94 0.0 2.0 0.00 0.03 0.03 94 1014.9
20260903043037 72 94 0.0 2.0 0.00 0.03 0.03 94 1014.9
20260903042506 72 94 1.0 2.0 0.00 0.03 0.03 94 1014.9
20260903042037 72 196 0.0 1.0 0.00 0.03 0.03 94 1015.0
20260903041554 72 196 0.0 2.0 0.00 0.03 0.03 94 1015.0
20260903041023 72 196 0.0 2.0 0.00 0.03 0.03 94 1014.9
20260903040555 72 192 0.0 2.0 0.00 0.03 0.03 94 1014.9
20260903040023 72 183 0.0 1.0 0.00 0.03 0.03 94 1015.0
20260903035553 72 220 0.0 1.0 0.00 0.03 0.03 94 1015.0
20260903035027 72 234 0.0 0.0 0.00 0.03 0.03 94 1015.0
20260903034510 72 234 0.0 0.0 0.00 0.03 0.03 94 1015.0
20260903034039 72 234 0.0 2.0 0.00 0.03 0.03 94 1015.0
20260903033511 72 234 0.0 3.0 0.00 0.03 0.03 94 1014.9
20260903033020 72 221 2.0 3.0 0.00 0.03 0.03 94 1014.9
20260903032555 72 222 0.0 3.0 0.00 0.03 0.03 94 1015.0
20260903032027 72 238 0.0 3.0 0.00 0.03 0.03 94 1014.9
20260903031503 72 219 1.0 3.0 0.00 0.03 0.03 94 1014.8
20260903031036 72 219 1.0 3.0 0.00 0.03 0.03 94 1014.9
20260903030505 72 235 0.0 0.0 0.00 0.03 0.03 94 1014.8
20260903030029 72 256 0.0 0.0 0.00 0.03 0.03 94 1014.9
20260903025550 72 222 0.0 0.0 0.00 0.03 0.03 94 1014.8
20260903025020 72 221 0.0 0.0 0.00 0.03 0.03 94 1014.8
20260903024555 72 221 0.0 0.0 0.00 0.03 0.03 94 1014.8
20260903024030 72 294 0.0 1.0 0.00 0.03 0.03 94 1014.9
20260903023548 72 294 0.0 3.0 0.00 0.03 0.03 94 1014.9
20260903023023 71 286 0.0 3.0 0.00 0.03 0.03 94 1014.9
20260903022600 71 282 1.0 5.0 0.00 0.03 0.03 95 1015.0
20260903022031 71 283 1.0 5.0 0.00 0.03 0.03 95 1014.8
20260903021505 71 295 2.0 6.0 0.00 0.03 0.03 95 1014.7
20260903021037 71 253 2.0 6.0 0.00 0.03 0.03 95 1014.8
20260903020550 71 307 0.0 0.0 0.00 0.03 0.03 95 1014.9
20260903020020 71 52 0.0 0.0 0.00 0.03 0.03 95 1014.8
20260903015553 71 304 0.0 3.0 0.00 0.03 0.03 95 1014.7
20260903015031 71 304 0.0 3.0 0.00 0.03 0.03 95 1014.7
20260903014610 71 286 1.0 4.0 0.00 0.03 0.03 95 1014.5
20260903014015 71 321 1.0 5.0 0.00 0.03 0.03 95 1014.6
20260903013550 71 327 2.0 5.0 0.00 0.03 0.03 95 1014.6
20260903013035 71 295 2.0 4.0 0.00 0.03 0.03 95 1014.7
20260903012554 72 273 1.0 4.0 0.00 0.03 0.03 95 1014.8
20260903012035 72 267 0.0 4.0 0.00 0.03 0.03 95 1014.7
20260903011609 72 321 1.0 3.0 0.00 0.03 0.03 95 1014.8
20260903011510 72 283 1.0 3.0 0.00 0.03 0.03 95 1014.8
20260903011016 72 304 1.0 3.0 0.00 0.03 0.03 95 1014.8
20260903010548 72 279 1.0 3.0 0.00 0.03 0.03 95 1014.8
20260903010029 72 282 0.0 3.0 0.00 0.03 0.03 95 1014.9
20260903005549 72 238 1.0 3.0 0.00 0.03 0.03 94 1015.0
20260903005026 72 7 0.0 3.0 0.00 0.03 0.03 94 1015.0
20260903004554 72 304 0.0 3.0 0.00 0.03 0.03 94 1015.0
20260903004015 73 284 0.0 3.0 0.00 0.03 0.03 94 1015.0
20260903003550 73 292 1.0 3.0 0.00 0.03 0.03 94 1015.0
20260903003024 73 320 0.0 2.0 0.00 0.03 0.03 94 1015.0
20260903002556 73 13 0.0 2.0 0.00 0.03 0.03 94 1015.0
20260903002018 73 270 0.0 0.0 0.00 0.03 0.03 93 1015.0
20260903001552 74 270 0.0 0.0 0.00 0.03 0.03 93 1015.1
20260903001024 74 340 0.0 0.0 0.00 0.03 0.03 93 1015.3
20260903000558 74 273 0.0 0.0 0.00 0.03 0.03 93 1015.3
20260903000502 74 273 0.0 0.0 0.00 0.03 0.03 93 1015.3
20260903000039 74 236 0.0 0.0 0.00 0.03 0.03 92 1015.2
20260902235552 74 254 0.0 0.0 0.00 0.03 0.03 92 1015.2
20260902235022 74 319 0.0 0.0 0.00 0.03 0.03 92 1015.6
20260902234559 75 319 0.0 1.0 0.00 0.03 0.03 92 1015.7
20260902234032 75 319 0.0 1.0 0.00 0.03 0.03 91 1015.4
20260902233504 75 319 0.0 2.0 0.00 0.03 0.03 91 1015.3
20260902233018 75 319 0.0 2.0 0.00 0.03 0.03 91 1015.3
20260902232548 75 319 0.0 3.0 0.00 0.03 0.03 91 1015.2
20260902232022 75 319 0.0 5.0 0.00 0.03 0.03 92 1015.1
20260902231609 75 332 1.0 5.0 0.00 0.03 0.03 92 1015.1
20260902231035 75 273 0.0 7.0 0.00 0.03 0.03 92 1015.0
20260902230604 76 7 2.0 7.0 0.00 0.03 0.03 93 1015.2
20260902230503 76 315 1.0 7.0 0.00 0.03 0.03 93 1015.3
20260902230037 76 274 2.0 3.0 0.00 0.03 0.03 93 1015.5
20260902225507 76 281 0.0 2.0 0.00 0.03 0.03 93 1015.5
20260902225034 76 281 0.0 1.0 0.00 0.03 0.03 93 1015.4
20260902224506 76 281 0.0 2.0 0.00 0.03 0.03 93 1015.5
20260902224044 76 281 0.0 2.0 0.00 0.03 0.03 93 1015.5
20260902223510 76 277 0.0 3.0 0.00 0.03 0.03 92 1015.5
20260902223053 76 277 0.0 3.0 0.00 0.03 0.03 92 1015.5
20260902222504 76 290 0.0 3.0 0.00 0.03 0.03 91 1015.3
20260902222042 76 12 0.0 3.0 0.00 0.03 0.03 91 1015.2
20260902221517 76 12 1.0 2.0 0.00 0.03 0.03 90 1015.3
20260902221048 77 11 0.0 3.0 0.00 0.03 0.03 90 1015.3
20260902220520 77 12 0.0 3.0 0.00 0.03 0.03 89 1015.3
20260902215531 77 304 1.0 5.0 0.00 0.03 0.03 89 1015.4
20260902215005 77 300 2.0 4.0 0.00 0.03 0.03 89 1015.5
20260902214540 77 269 0.0 2.0 0.00 0.03 0.03 89 1015.4
20260902214012 77 23 0.0 4.0 0.00 0.03 0.03 89 1015.5
20260902213545 77 286 1.0 7.0 0.00 0.03 0.03 88 1015.5
20260902213100 77 252 3.0 7.0 0.00 0.03 0.03 88 1015.6
20260902213002 77 279 2.0 7.0 0.00 0.03 0.03 88 1015.6
20260902212540 77 282 0.0 5.0 0.00 0.03 0.03 89 1015.6
20260902212010 77 15 3.0 6.0 0.00 0.03 0.03 88 1015.6
20260902211546 77 306 3.0 5.0 0.00 0.03 0.03 90 1015.6
20260902211015 76 302 1.0 4.0 0.00 0.03 0.03 91 1015.6
20260902210553 76 358 0.0 4.0 0.00 0.03 0.03 92 1015.5
20260902210021 76 298 1.0 5.0 0.00 0.03 0.03 91 1015.5
20260902205554 76 308 1.0 4.0 0.00 0.03 0.03 92 1015.5
20260902205022 75 226 0.0 4.0 0.00 0.03 0.03 93 1015.4
20260902204556 75 318 1.0 4.0 0.00 0.03 0.03 95 1015.3
20260902204028 74 205 0.0 2.0 0.00 0.03 0.03 94 1015.2
20260902203559 74 205 1.0 2.0 0.00 0.03 0.03 95 1015.3
20260902203501 74 205 1.0 2.0 0.00 0.03 0.03 95 1015.2
20260902203017 74 205 1.0 2.0 0.00 0.03 0.03 94 1015.2
20260902202552 74 296 0.0 0.0 0.00 0.03 0.03 95 1015.3
20260902202034 73 296 0.0 1.0 0.00 0.03 0.03 95 1015.4
20260902201601 73 20 0.0 3.0 0.00 0.03 0.03 95 1015.4
20260902201509 73 20 0.0 3.0 0.00 0.03 0.03 95 1015.4
20260902201035 73 299 1.0 2.0 0.00 0.03 0.03 94 1016.0
20260902200506 73 276 0.0 3.0 0.00 0.03 0.03 94 1015.9
20260902200020 73 44 0.0 3.0 0.00 0.03 0.03 94 1015.9
20260902195555 73 47 0.0 2.0 0.00 0.03 0.03 94 1015.9
20260902195035 73 280 0.0 4.0 0.00 0.03 0.03 94 1016.3
20260902194600 74 1 1.0 5.0 0.00 0.03 0.03 94 1016.3
20260902194504 74 1 1.0 5.0 0.00 0.03 0.03 94 1016.3
20260902194038 74 29 1.0 6.0 0.00 0.03 0.03 94 1016.4
20260902193510 74 298 4.0 6.0 0.00 0.03 0.03 93 1016.7
20260902193045 74 263 2.0 4.0 0.00 0.03 0.03 93 1016.2
20260902192509 74 354 2.0 3.0 0.00 0.03 0.03 92 1015.8
20260902192042 74 138 0.0 4.0 0.01 0.03 0.03 91 1015.7
20260902191516 74 138 1.0 4.0 0.02 0.03 0.03 92 1015.7
20260902191047 74 133 2.0 4.0 0.03 0.03 0.03 92 1015.8
20260902190519 74 233 1.0 4.0 0.03 0.03 0.03 92 1016.0
20260902190052 75 344 2.0 4.0 0.03 0.03 0.03 90 1016.2
20260902185509 75 209 0.0 0.0 0.03 0.03 0.03 91 1016.2
20260902185044 75 295 0.0 3.0 0.03 0.03 0.03 91 1016.7
20260902184517 75 97 0.0 3.0 0.03 0.03 0.03 90 1016.7
20260902184043 75 108 0.0 0.0 0.03 0.03 0.03 89 1016.4
20260902183513 75 107 0.0 0.0 0.03 0.03 0.03 89 1016.4
20260902183103 76 107 0.0 0.0 0.03 0.03 0.03 88 1016.2
20260902182509 76 107 0.0 0.0 0.03 0.03 0.03 87 1016.4
20260902182039 77 152 0.0 4.0 0.02 0.02 0.02 85 1016.3
20260902181510 78 331 2.0 8.0 0.01 0.01 0.01 81 1016.5
20260902181041 79 234 2.0 8.0 0.00 0.00 0.00 78 1016.0
20260902180512 79 198 3.0 14.0 0.00 0.00 0.00 76 1015.8
20260902180027 79 170 4.0 15.0 0.00 0.00 0.00 76 1016.3
20260902175504 80 180 6.0 19.0 0.00 0.00 0.00 73 1016.5
20260902175038 82 153 10.0 19.0 0.00 0.00 0.00 70 1016.5
20260902174508 83 146 9.0 17.0 0.00 0.00 0.00 69 1016.4
20260902174042 85 117 8.0 30.0 0.00 0.00 0.00 69 1016.2
20260902173512 88 196 15.0 30.0 0.00 0.00 0.00 67 1016.1
20260902173046 90 214 1.0 6.0 0.00 0.00 0.00 69 1015.5
20260902172518 90 185 3.0 6.0 0.00 0.00 0.00 69 1015.6
20260902172047 90 194 2.0 4.0 0.00 0.00 0.00 69 1015.7
20260902171524 89 225 0.0 8.0 0.00 0.00 0.00 74 1015.8
20260902171058 89 92 0.0 8.0 0.00 0.00 0.00 70 1015.9
20260902170515 89 106 0.0 2.0 0.00 0.00 0.00 69 1015.8
20260902170043 89 267 0.0 6.0 0.00 0.00 0.00 71 1015.8
20260902165513 89 240 2.0 9.0 0.00 0.00 0.00 71 1015.7
20260902165050 88 305 3.0 9.0 0.00 0.00 0.00 72 1015.8
20260902164520 88 239 0.0 4.0 0.00 0.00 0.00 73 1015.9
20260902164053 87 82 1.0 5.0 0.00 0.00 0.00 74 1016.0
20260902163527 88 149 2.0 6.0 0.00 0.00 0.00 74 1016.0
20260902163004 88 231 1.0 6.0 0.00 0.00 0.00 70 1015.9
20260902162531 88 220 0.0 2.0 0.00 0.00 0.00 72 1016.0
20260902162009 88 257 0.0 7.0 0.00 0.00 0.00 74 1016.1
20260902161537 87 274 2.0 7.0 0.00 0.00 0.00 72 1016.0
20260902161009 87 180 0.0 6.0 0.00 0.00 0.00 76 1016.0
20260902160543 87 296 0.0 6.0 0.00 0.00 0.00 74 1016.1
20260902160113 87 286 1.0 6.0 0.00 0.00 0.00 73 1016.2
20260902160001 87 274 0.0 1.0 0.00 0.00 0.00 74 1016.2
20260902155532 87 88 0.0 2.0 0.00 0.00 0.00 74 1016.0
20260902155009 87 5 0.0 4.0 0.00 0.00 0.00 72 1016.0
20260902154537 87 255 2.0 6.0 0.00 0.00 0.00 73 1016.1
20260902154012 86 207 1.0 7.0 0.00 0.00 0.00 74 1016.1
20260902153527 86 304 3.0 7.0 0.00 0.00 0.00 73 1016.1
20260902153019 86 128 0.0 0.0 0.00 0.00 0.00 73 1016.0
20260902152537 86 181 0.0 0.0 0.00 0.00 0.00 75 1016.0
20260902152009 86 286 0.0 4.0 0.00 0.00 0.00 75 1016.0
20260902151543 85 231 0.0 4.0 0.00 0.00 0.00 78 1016.0
20260902151057 85 319 0.0 6.0 0.00 0.00 0.00 76 1015.9
20260902150529 85 252 0.0 2.0 0.00 0.00 0.00 76 1015.9
20260902150005 85 39 0.0 5.0 0.00 0.00 0.00 75 1015.8
20260902145539 85 246 1.0 5.0 0.00 0.00 0.00 75 1015.7
20260902145010 84 280 0.0 4.0 0.00 0.00 0.00 75 1015.8
20260902144544 84 190 0.0 3.0 0.00 0.00 0.00 75 1015.7
20260902144012 84 304 0.0 6.0 0.00 0.00 0.00 75 1015.6
20260902143527 84 249 1.0 6.0 0.00 0.00 0.00 75 1015.6
20260902143003 84 152 0.0 4.0 0.00 0.00 0.00 77 1015.8
20260902142537 83 142 0.0 4.0 0.00 0.00 0.00 75 1015.8
20260902142010 83 204 0.0 2.0 0.00 0.00 0.00 76 1015.8
20260902141522 83 265 0.0 7.0 0.00 0.00 0.00 77 1016.0
20260902141057 83 260 1.0 7.0 0.00 0.00 0.00 78 1016.0
20260902140531 83 222 0.0 6.0 0.00 0.00 0.00 77 1015.9
20260902140105 83 256 2.0 4.0 0.00 0.00 0.00 76 1016.1
20260902140000 82 234 2.0 4.0 0.00 0.00 0.00 76 1016.0
20260902135532 82 272 1.0 5.0 0.00 0.00 0.00 76 1016.1
20260902135050 82 224 1.0 4.0 0.00 0.00 0.00 78 1016.2
20260902134521 82 238 0.0 0.0 0.00 0.00 0.00 78 1016.2
20260902134054 81 246 0.0 0.0 0.00 0.00 0.00 78 1016.1
20260902133533 81 312 0.0 0.0 0.00 0.00 0.00 79 1016.1
20260902133057 81 75 0.0 0.0 0.00 0.00 0.00 79 1016.0
20260902132535 81 163 0.0 0.0 0.00 0.00 0.00 78 1015.8
20260902132048 80 209 0.0 0.0 0.00 0.00 0.00 79 1015.9
20260902131532 80 175 0.0 0.0 0.00 0.00 0.00 78 1015.8
20260902131046 80 147 0.0 0.0 0.00 0.00 0.00 79 1015.9
20260902130517 80 186 0.0 0.0 0.00 0.00 0.00 79 1015.9
20260902130051 79 218 0.0 0.0 0.00 0.00 0.00 82 1015.9
20260902125508 78 218 0.0 0.0 0.00 0.00 0.00 84 1016.0
20260902125024 78 218 0.0 0.0 0.00 0.00 0.00 86 1016.0
20260902124559 77 218 0.0 0.0 0.00 0.00 0.00 85 1015.9
20260902124034 77 218 0.0 0.0 0.00 0.00 0.00 89 1016.0
20260902123508 76 218 0.0 0.0 0.00 0.00 0.00 89 1016.0
20260902123032 76 218 0.0 0.0 0.00 0.00 0.00 91 1016.0
20260902122542 75 218 0.0 0.0 0.00 0.00 0.00 91 1015.9
20260902122016 75 218 0.0 0.0 0.00 0.00 0.00 92 1015.9